Regional Weather Roundup
Issued by NWS

Home | Current Version | Previous Version | Text Only | Print | Product List | Glossary Off
Versions: 1 2 3 4 5 6 7 8 9 10 11 12 13 14 15 16 17 18 19 20 21 22 23 24 25 26 27 28 29 30 31 32 33 34 35 36 37 38 39 40 41 42 43 44 45 46 47 48 49 50

000
ASUS43 KOAX 260410
RWRNE

WEATHER ROUNDUP FOR NEBRASKA
NATIONAL WEATHER SERVICE OMAHA NE
1100 PM CDT MON MAY 25 2015

NOTES: SATELLITE DATA IS BEING USED TO AUGMENT CLOUD COVER ABOVE
       12000 FEET.
       "FAIR" INDICATES FEW OR NO CLOUDS BELOW 12,000 FEET WITH NO
       SIGNIFICANT WEATHER AND/OR OBSTRUCTIONS TO VISIBILITY.

  * THESE STATIONS DO NOT REPORT WEATHER SUCH AS RAIN...SNOW OR FOG.

NEZ001>004-019>022-054>056-260500-
NEBRASKA PANHANDLE

CITY           SKY/WX    TMP DP  RH WIND       PRES   REMARKS
SCOTTSBLUFF    MOCLDY    50  49  96 NW5       29.94R
ALLIANCE       CLEAR     48  47  96 NW5       29.93R
CHADRON        CLOUDY    54  52  93 N3        29.93R
KIMBALL          N/A    N/A N/A N/A MISG        N/A
SIDNEY         MOCLDY    48  46  93 NW8       29.95R
$$

NEZ057>060-069>072-079>082-260500-
SOUTHWEST NEBRASKA

CITY           SKY/WX    TMP DP  RH WIND       PRES   REMARKS
NORTH PLATTE   CLOUDY    54  50  86 NW7       29.88R
IMPERIAL       CLOUDY    55  50  83 W8        29.91R
LEXINGTON      PTCLDY    56  53  87 W8        29.83R
MCCOOK         PTCLDY    58  51  78 W12       29.84R
OGALLALA       MOCLDY    52  50  94 W3        29.91R
$$

NEZ005>010-023>029-035>040-094-260500-
NORTH CENTRAL NEBRASKA

CITY           SKY/WX    TMP DP  RH WIND       PRES   REMARKS
VALENTINE      CLOUDY    56  54  93 N5        29.89R
AINSWORTH      CLOUDY    56  56  98 NW5       29.88R
BROKEN BOW     PTCLDY    59  54  83 N17       29.84R
O`NEILL        CLOUDY    59  59  97 N6        29.84R
ORD            CLOUDY    61  57  87 N6        29.81R
THEDFORD       CLOUDY    57  54  90 N3        29.89R
$$

NEZ041-046>049-061>064-073>077-083>087-260500-
SOUTH CENTRAL NEBRASKA

CITY           SKY/WX    TMP DP  RH WIND       PRES   REMARKS
GRAND ISLAND   CLOUDY    62  57  83 S6        29.79R
AURORA         CLOUDY    64  58  81 CALM      29.78F
HASTINGS       CLOUDY    63  57  81 S5        29.79R
HEBRON         CLOUDY    63  55  75 CALM      29.78S
HOLDREGE       CLOUDY    61  49  65 W8        29.82R
KEARNEY *      CLOUDY    64  50  59 W8        29.81R
YORK           CLOUDY    63  57  82 SW7       29.78F
$$

NEZ011>018-030>034-042>045-260500-
NORTHEAST NEBRASKA

CITY           SKY/WX    TMP DP  RH WIND       PRES   REMARKS
NORFOLK        CLOUDY    64  56  75 NW14      29.80R
ALBION         CLOUDY    58  56  91 NE8       29.80R
BLAIR          CLOUDY    63  59  88 SE7       29.83S
COLUMBUS *     CLOUDY   N/A N/A N/A MISG        N/A
FREMONT        CLOUDY    63  60  90 SE8       29.82R
TEKAMAH        LGT RAIN  63  58  83 S22       29.79R
WAYNE          MOCLDY    63  57  82 N8        29.80R
$$

NEZ050>053-065>068-078-088>093-260500-
SOUTHEAST NEBRASKA

CITY           SKY/WX    TMP DP  RH WIND       PRES   REMARKS
LINCOLN        CLOUDY    64  57  78 SE10      29.80S
OMAHA EPPLEY   CLOUDY    66  59  78 W6        29.83R
BEATRICE       CLOUDY    62  58  88 E3        29.79F
FALLS CITY     LGT RAIN  61  58  90 SE12      29.83R
NEBRASKA CITY  CLOUDY    61  59  94 SE8       29.81S
PLATTSMOUTH    CLOUDY    62  57  86 SE3       29.82R
$$

NEZ044-045-051>053-067-260500-
OMAHA AREA

CITY           SKY/WX    TMP DP  RH WIND       PRES   REMARKS
OMAHA EPPLEY   CLOUDY    66  59  78 W6        29.83R
BLAIR          CLOUDY    63  59  88 SE7       29.83S
FREMONT        CLOUDY    63  60  90 SE8       29.82R
MILLARD        CLOUDY    65  59  83 CALM      29.82F
OFFUTT AFB     CLOUDY    63  60  91 W1        29.81R
PLATTSMOUTH    CLOUDY    62  57  86 SE3       29.82R
WAHOO          MOCLDY    64  58  82 SE12      29.81R
$$


USA.gov is the U.S. government's official web portal to all federal, state and local government web resources and services.